Radiation Dose at Monitoring Post of Fukushima Daini Nuclear Power Station
Date,Time,MP-1(microSv/h),MP-2(microSv/h),MP-3(microSv/h),MP-4(microSv/h),MP-5(microSv/h),MP-6(microSv/h),MP-7(microSv/h),Wind Direction,Wind Velocity(m/s),Rain
2014/11/06,00:00,0.619,0.413,0.655,0.595,0.590,0.272,0.241,north,1.9,No
2014/11/06,00:10,0.620,0.412,0.656,0.594,0.590,0.274,0.239,north-northwest,0.8,No
2014/11/06,00:20,0.623,0.413,0.657,0.596,0.591,0.273,0.241,north,3.7,No
2014/11/06,00:30,0.622,0.413,0.657,0.593,0.590,0.273,0.240,-,CALM,No
2014/11/06,00:40,0.622,0.413,0.658,0.597,0.592,0.273,0.239,north,2.8,No
2014/11/06,00:50,0.623,0.414,0.658,0.594,0.592,0.272,0.240,north,4.0,No
2014/11/06,01:00,0.621,0.415,0.657,0.596,0.589,0.274,0.241,north,3.4,No
2014/11/06,01:10,0.621,0.413,0.656,0.595,0.592,0.273,0.241,north,4.4,No
2014/11/06,01:20,0.622,0.414,0.656,0.594,0.591,0.272,0.239,north,4.0,No
2014/11/06,01:30,0.622,0.413,0.658,0.595,0.589,0.273,0.238,north,4.0,No
2014/11/06,01:40,0.619,0.412,0.657,0.595,0.591,0.274,0.240,north,4.0,No
2014/11/06,01:50,0.622,0.412,0.655,0.596,0.591,0.272,0.240,north,4.2,No
2014/11/06,02:00,0.620,0.414,0.657,0.593,0.588,0.273,0.241,north,4.0,No
2014/11/06,02:10,0.622,0.414,0.656,0.596,0.591,0.271,0.240,north,3.3,No
2014/11/06,02:20,0.622,0.415,0.658,0.594,0.590,0.272,0.239,north-northeast,2.4,No
2014/11/06,02:30,0.620,0.413,0.657,0.597,0.591,0.273,0.240,north,4.0,No
2014/11/06,02:40,0.622,0.414,0.656,0.596,0.589,0.273,0.239,north,3.9,No
2014/11/06,02:50,0.621,0.413,0.657,0.596,0.591,0.272,0.238,north-northwest,4.5,No
2014/11/06,03:00,0.620,0.413,0.656,0.597,0.591,0.273,0.240,north,4.5,No
2014/11/06,03:10,0.620,0.415,0.656,0.596,0.590,0.273,0.239,north,4.0,No
2014/11/06,03:20,0.622,0.414,0.659,0.594,0.592,0.273,0.239,north-northwest,4.3,No
2014/11/06,03:30,0.621,0.413,0.657,0.596,0.592,0.273,0.239,north-northwest,4.8,No
2014/11/06,03:40,0.621,0.415,0.658,0.595,0.590,0.272,0.240,north-northwest,3.9,No
2014/11/06,03:50,0.622,0.414,0.656,0.595,0.591,0.273,0.239,north,2.9,No
2014/11/06,04:00,0.620,0.415,0.658,0.596,0.591,0.271,0.239,north,2.6,No
2014/11/06,04:10,0.620,0.414,0.657,0.595,0.589,0.271,0.240,north,1.4,No
2014/11/06,04:20,0.622,0.413,0.657,0.596,0.591,0.273,0.240,north,1.4,No
2014/11/06,04:30,0.621,0.414,0.657,0.597,0.592,0.272,0.240,north,1.4,No
2014/11/06,04:40,0.621,0.415,0.656,0.596,0.590,0.273,0.240,north,2.9,No
2014/11/06,04:50,0.623,0.413,0.658,0.596,0.593,0.272,0.240,north,4.1,No
2014/11/06,05:00,0.622,0.413,0.657,0.595,0.591,0.273,0.239,north,4.1,No
2014/11/06,05:10,0.620,0.415,0.656,0.595,0.590,0.274,0.240,north,1.5,No
2014/11/06,05:20,0.622,0.414,0.658,0.595,0.590,0.273,0.240,north,2.2,No
2014/11/06,05:30,0.622,0.414,0.655,0.597,0.590,0.274,0.240,north,2.5,No
2014/11/06,05:40,0.621,0.414,0.657,0.595,0.591,0.273,0.239,north-northwest,2.2,No
2014/11/06,05:50,0.623,0.414,0.657,0.595,0.591,0.272,0.241,north,3.2,No
2014/11/06,06:00,0.623,0.414,0.658,0.595,0.591,0.274,0.240,north,2.2,No
2014/11/06,06:10,0.620,0.414,0.658,0.594,0.591,0.272,0.241,north,3.1,No
2014/11/06,06:20,0.622,0.414,0.658,0.596,0.590,0.274,0.240,north,4.4,No
2014/11/06,06:30,0.619,0.415,0.657,0.595,0.591,0.272,0.239,north,5.0,No
2014/11/06,06:40,0.619,0.414,0.658,0.596,0.592,0.273,0.240,north,5.7,No
2014/11/06,06:50,0.620,0.415,0.658,0.595,0.593,0.274,0.241,north,5.4,No
2014/11/06,07:00,0.619,0.415,0.658,0.596,0.592,0.273,0.239,north,5.3,No
2014/11/06,07:10,0.623,0.415,0.656,0.595,0.591,0.272,0.240,north-northwest,5.3,No
2014/11/06,07:20,0.621,0.416,0.657,0.595,0.593,0.273,0.241,north-northwest,5.6,No
2014/11/06,07:30,0.621,0.414,0.657,0.596,0.592,0.273,0.240,north,4.9,No
2014/11/06,07:40,0.621,0.414,0.658,0.595,0.592,0.273,0.240,north-northwest,4.3,No
2014/11/06,07:50,0.621,0.414,0.657,0.595,0.592,0.275,0.240,north-northwest,4.0,No
2014/11/06,08:00,0.621,0.415,0.659,0.595,0.591,0.273,0.239,north-northwest,2.8,No
2014/11/06,08:10,0.623,0.415,0.659,0.594,0.593,0.273,0.240,north,2.5,No
2014/11/06,08:20,0.622,0.416,0.658,0.594,0.591,0.272,0.238,north-northeast,1.6,No
2014/11/06,08:30,0.621,0.415,0.657,0.596,0.591,0.274,0.240,north-northeast,2.1,No
2014/11/06,08:40,0.622,0.416,0.657,0.598,0.591,0.273,0.240,north-northeast,2.3,No
2014/11/06,08:50,0.620,0.413,0.658,0.600,0.592,0.274,0.239,north-northeast,2.7,No
2014/11/06,09:00,0.621,0.416,0.660,0.599,0.591,0.272,0.240,north-northeast,3.1,No
2014/11/06,09:10,0.621,0.416,0.657,0.599,0.591,0.273,0.239,north,3.4,No
2014/11/06,09:20,0.622,0.415,0.658,0.598,0.592,0.273,0.240,north,2.6,No
2014/11/06,09:30,0.621,0.414,0.659,0.599,0.592,0.272,0.240,north-northeast,2.7,No
2014/11/06,09:40,0.622,0.413,0.658,0.601,0.592,0.273,0.239,north,4.0,No
2014/11/06,09:50,0.623,0.414,0.660,0.602,0.590,0.273,0.240,north,3.8,No
2014/11/06,10:00,0.623,0.416,0.659,0.601,0.591,0.274,0.240,north,2.5,No
2014/11/06,10:10,0.621,0.415,0.659,0.603,0.594,0.273,0.238,north,3.5,No
2014/11/06,10:20,0.622,0.415,0.656,0.601,0.593,0.272,0.242,north,3.1,No
2014/11/06,10:30,0.622,0.414,0.658,0.603,0.594,0.274,0.241,north,4.2,No
2014/11/06,10:40,0.623,0.415,0.659,0.606,0.596,0.271,0.240,north,3.4,No
2014/11/06,10:50,0.624,0.416,0.658,0.606,0.596,0.273,0.241,north-northeast,3.3,No
2014/11/06,11:00,0.625,0.416,0.658,0.608,0.595,0.274,0.240,north-northeast,4.1,No
2014/11/06,11:10,0.626,0.416,0.657,0.608,0.595,0.273,0.239,north-northeast,5.6,No
2014/11/06,11:20,0.626,0.416,0.658,0.611,0.594,0.273,0.241,north-northeast,5.1,No
2014/11/06,11:30,0.625,0.416,0.658,0.609,0.594,0.272,0.239,north-northeast,4.6,No
2014/11/06,11:40,0.625,0.416,0.658,0.609,0.596,0.274,0.239,northeast,5.8,No
2014/11/06,11:50,0.625,0.417,0.660,0.611,0.598,0.273,0.241,northeast,4.0,No
2014/11/06,12:00,0.626,0.416,0.657,0.609,0.596,0.273,0.239,north-northeast,3.2,No
2014/11/06,12:10,0.623,0.417,0.659,0.610,0.595,0.273,0.240,north,3.0,No
2014/11/06,12:20,0.624,0.416,0.657,0.610,0.595,0.272,0.241,north-northwest,2.1,No
2014/11/06,12:30,0.622,0.416,0.660,0.609,0.595,0.274,0.239,north,1.9,No
2014/11/06,12:40,0.622,0.416,0.660,0.608,0.595,0.272,0.242,north,2.0,No
2014/11/06,12:50,0.624,0.417,0.659,0.608,0.595,0.273,0.240,north,0.7,No
2014/11/06,13:00,0.622,0.416,0.660,0.608,0.596,0.273,0.240,north-northeast,0.7,No
2014/11/06,13:10,0.623,0.417,0.659,0.609,0.596,0.273,0.242,northeast,1.2,No
2014/11/06,13:20,0.621,0.418,0.657,0.609,0.595,0.273,0.239,northeast,2.2,No
2014/11/06,13:30,0.624,0.418,0.660,0.607,0.595,0.272,0.240,east-northeast,2.5,No
2014/11/06,13:40,0.624,0.415,0.658,0.609,0.595,0.274,0.241,northeast,1.8,No
2014/11/06,13:50,0.623,0.417,0.660,0.607,0.594,0.273,0.240,east-northeast,1.5,No
2014/11/06,14:00,0.623,0.417,0.658,0.607,0.594,0.272,0.240,north-northeast,2.1,No
2014/11/06,14:10,0.623,0.415,0.658,0.607,0.593,0.272,0.239,north-northeast,2.1,No
2014/11/06,14:20,0.622,0.418,0.658,0.608,0.594,0.272,0.240,north-northeast,1.5,No
2014/11/06,14:30,0.622,0.418,0.660,0.607,0.595,0.272,0.239,north-northeast,1.5,No
2014/11/06,14:40,0.622,0.417,0.658,0.606,0.594,0.272,0.241,north-northeast,1.6,No
2014/11/06,14:50,0.621,0.416,0.659,0.605,0.593,0.272,0.239,north-northeast,1.4,No
2014/11/06,15:00,0.623,0.417,0.656,0.607,0.590,0.272,0.240,north-northeast,1.4,No
2014/11/06,15:10,0.621,0.416,0.659,0.607,0.591,0.272,0.239,northeast,1.4,No
2014/11/06,15:20,0.620,0.416,0.658,0.605,0.590,0.274,0.242,north,1.1,No
2014/11/06,15:30,0.621,0.416,0.658,0.602,0.592,0.272,0.240,north-northeast,1.5,No
2014/11/06,15:40,0.619,0.415,0.659,0.601,0.591,0.275,0.241,north,2.1,No
2014/11/06,15:50,0.621,0.417,0.658,0.599,0.594,0.273,0.239,north,1.9,No
2014/11/06,16:00,0.620,0.413,0.657,0.599,0.590,0.273,0.239,north,1.6,No
2014/11/06,16:10,0.619,0.414,0.656,0.599,0.591,0.272,0.240,north,1.3,No
2014/11/06,16:20,0.619,0.414,0.657,0.599,0.591,0.273,0.240,north,1.1,No
2014/11/06,16:30,0.622,0.413,0.655,0.597,0.590,0.274,0.241,north-northeast,1.4,No
2014/11/06,16:40,0.621,0.413,0.656,0.598,0.590,0.272,0.241,north,2.1,No
2014/11/06,16:50,0.620,0.412,0.656,0.597,0.590,0.274,0.240,north-northwest,2.7,No
2014/11/06,17:00,0.620,0.414,0.655,0.593,0.589,0.271,0.241,-,CALM,No
2014/11/06,17:10,0.620,0.414,0.654,0.594,0.588,0.273,0.240,north-northwest,2.1,No
2014/11/06,17:20,0.620,0.414,0.656,0.596,0.589,0.274,0.241,north,1.5,No
2014/11/06,17:30,0.618,0.413,0.657,0.593,0.589,0.272,0.239,north-northwest,1.9,No
2014/11/06,17:40,0.619,0.413,0.654,0.593,0.589,0.272,0.241,north,2.5,Yes
2014/11/06,17:50,0.622,0.412,0.654,0.593,0.588,0.273,0.241,north-northwest,2.9,No
2014/11/06,18:00,0.620,0.413,0.655,0.596,0.589,0.273,0.241,north-northwest,2.2,No
2014/11/06,18:10,0.621,0.414,0.656,0.595,0.589,0.273,0.240,north-northwest,4.4,No
2014/11/06,18:20,0.618,0.413,0.657,0.594,0.588,0.273,0.241,north-northwest,5.8,No
2014/11/06,18:30,0.618,0.413,0.657,0.594,0.588,0.274,0.241,north-northwest,5.7,No
2014/11/06,18:40,0.620,0.414,0.654,0.592,0.589,0.274,0.240,north-northwest,5.0,No
2014/11/06,18:50,0.622,0.414,0.656,0.592,0.589,0.274,0.241,north-northwest,4.5,No
2014/11/06,19:00,0.619,0.415,0.657,0.595,0.589,0.273,0.241,north-northwest,4.1,Yes
2014/11/06,19:10,0.618,0.413,0.657,0.593,0.590,0.274,0.241,north,5.4,No
2014/11/06,19:20,0.622,0.415,0.656,0.594,0.591,0.274,0.241,north,6.4,Yes
2014/11/06,19:30,0.620,0.413,0.656,0.595,0.589,0.274,0.242,north,7.5,Yes
2014/11/06,19:40,0.620,0.414,0.655,0.594,0.589,0.272,0.241,north,7.1,Yes
2014/11/06,19:50,0.622,0.415,0.655,0.594,0.591,0.274,0.242,north-northwest,6.3,Yes
2014/11/06,20:00,0.621,0.415,0.656,0.594,0.589,0.274,0.240,north-northwest,6.4,Yes
2014/11/06,20:10,0.621,0.414,0.655,0.592,0.590,0.276,0.241,north-northwest,6.7,Yes
2014/11/06,20:20,0.617,0.414,0.655,0.591,0.588,0.275,0.243,north-northwest,7.0,Yes
2014/11/06,20:30,0.619,0.415,0.654,0.590,0.588,0.276,0.241,north-northwest,7.3,Yes
2014/11/06,20:40,0.618,0.413,0.653,0.591,0.589,0.273,0.240,north-northwest,8.3,Yes
2014/11/06,20:50,0.619,0.412,0.655,0.590,0.587,0.274,0.239,north-northwest,8.4,Yes
2014/11/06,21:00,0.618,0.411,0.652,0.589,0.586,0.271,0.239,north-northwest,8.9,Yes
2014/11/06,21:10,0.620,0.413,0.652,0.587,0.586,0.270,0.238,north-northwest,8.9,Yes
2014/11/06,21:20,0.619,0.413,0.653,0.588,0.585,0.270,0.236,north-northwest,9.0,Yes
2014/11/06,21:30,0.618,0.412,0.652,0.587,0.584,0.270,0.238,north-northwest,8.6,Yes
2014/11/06,21:40,0.618,0.409,0.653,0.589,0.585,0.271,0.236,north-northwest,8.3,Yes
2014/11/06,21:50,0.618,0.413,0.654,0.586,0.585,0.269,0.235,north,7.5,Yes
2014/11/06,22:00,0.621,0.413,0.652,0.586,0.585,0.271,0.236,north-northwest,9.3,Yes
2014/11/06,22:10,0.618,0.411,0.652,0.586,0.587,0.268,0.236,north-northwest,7.4,Yes
2014/11/06,22:20,0.618,0.412,0.652,0.588,0.584,0.270,0.236,northwest,6.4,Yes
2014/11/06,22:30,0.619,0.411,0.652,0.589,0.585,0.268,0.235,north-northwest,5.4,Yes
2014/11/06,22:40,0.619,0.412,0.650,0.585,0.584,0.269,0.235,northwest,5.6,Yes
2014/11/06,22:50,0.620,0.411,0.652,0.586,0.584,0.269,0.236,north-northwest,6.5,Yes
2014/11/06,23:00,0.618,0.412,0.653,0.586,0.585,0.268,0.236,north-northwest,8.1,Yes
2014/11/06,23:10,0.618,0.412,0.652,0.588,0.582,0.269,0.235,north-northwest,8.2,Yes
2014/11/06,23:20,0.618,0.413,0.653,0.588,0.581,0.269,0.236,north-northwest,8.9,Yes
2014/11/06,23:30,0.619,0.411,0.652,0.588,0.584,0.269,0.236,north,8.5,Yes
2014/11/06,23:40,0.618,0.411,0.651,0.585,0.585,0.270,0.235,north,9.4,Yes
2014/11/06,23:50,0.620,0.411,0.649,0.584,0.584,0.268,0.235,north-northwest,8.8,Yes
